Weather History for KHBG - January, 2014

Change the Weather History Date:

Wednesday, January 8, 2014

  Actual Average Record
Temperature  
Mean Temperature 32 °F 49 °F  
Max Temperature 49 °F 60 °F 80 °F (1989)
Min Temperature 15 °F 38 °F 15 °F (2014)
Degree Days  
Heating Degree Days 33 17  
Month to date heating degree days 217 129  
Since 1 July heating degree days 1038 914  
Cooling Degree Days 0 0  
Month to date cooling degree days 0 0  
Year to date cooling degree days 0 0  
Moisture  
Dew Point 16 °F    
Average Humidity 58    
Maximum Humidity 88    
Minimum Humidity 27    
Precipitation  
Precipitation 0.00 in 0.17 in 4.95 in (1975)
Month to date precipitation 0.40 1.48  
Year to date precipitation 0.40 1.48  
Sea Level Pressure  
Sea Level Pressure 30.47 in    
Wind  
Wind Speed 3 mph (SE)    
Max Wind Speed 10 mph    
Max Gust Speed 15 mph    
Visibility 10 miles    
Events      
T = Trace of Precipitation, MM = Missing Value Source: NWS Daily Summary

Daily Weather History Graph

Daily Weather History Graph

Search for Another Location

Airport or City:

Trip Planner

Search our weather history database for the weather conditions in past years. The results will help you decide how hot, cold, wet, or windy it might be!

Date:

Astronomy

Jan. 08, 2014 Rise Set
Actual Time 6:56 AM CST 5:11 PM CST
Civil Twilight 6:30 AM CST 5:37 PM CST
Nautical Twilight 6:00 AM CST 6:07 PM CST
Astronomical Twilight 5:30 AM CST 6:36 PM CST
Moon 11:51 AM CST (1/8) 12:15 AM CST (1/8)
Length of Visible Light 11h 07m
Length of Day
10h 14m
First Quarter, 56% of the Moon is Illuminated
Jan 8
First Quarter
Jan 15
Full
Jan 23
Last Quarter
Jan 30
New
Feb 6
First Quarter

Hourly Weather History & Observations

Time (CST) Temp. Windchill Dew Point Humidity Pressure Visibility Wind Dir Wind Speed Gust Speed Precip Events Conditions
12:53 AM 19.0 °F - 14.0 °F 81% 30.51 in 10.0 mi Calm Calm - N/A   Clear
1:53 AM 18.0 °F - 14.0 °F 84% 30.51 in 10.0 mi Calm Calm - N/A   Clear
2:53 AM 18.0 °F - 12.9 °F 81% 30.52 in 10.0 mi Calm Calm - N/A   Clear
3:53 AM 16.0 °F 10.4 °F 12.0 °F 84% 30.52 in 10.0 mi SSE 3.5 mph - N/A   Clear
4:53 AM 16.0 °F - 12.0 °F 84% 30.51 in 10.0 mi Calm Calm - N/A   Clear
5:53 AM 16.0 °F - 12.0 °F 84% 30.51 in 10.0 mi Calm Calm - N/A   Clear
6:53 AM 16.0 °F - 12.0 °F 84% 30.53 in 10.0 mi Calm Calm - N/A   Clear
7:53 AM 19.9 °F - 15.1 °F 81% 30.54 in 10.0 mi Calm Calm - N/A   Clear
8:53 AM 25.0 °F 18.1 °F 14.0 °F 63% 30.56 in 10.0 mi East 5.8 mph - N/A   Clear
9:53 AM 30.0 °F 21.7 °F 10.0 °F 43% 30.56 in 10.0 mi East 9.2 mph - N/A   Clear
10:53 AM 36.0 °F 30.3 °F 10.0 °F 34% 30.53 in 10.0 mi ESE 6.9 mph - N/A   Clear
11:53 AM 39.9 °F 37.8 °F 8.1 °F 27% 30.49 in 10.0 mi Variable 3.5 mph - N/A   Clear
12:53 PM 43.0 °F 41.3 °F 12.9 °F 30% 30.43 in 10.0 mi Variable 3.5 mph - N/A   Clear
1:53 PM 46.0 °F 44.8 °F 18.0 °F 33% 30.42 in 10.0 mi South 3.5 mph - N/A   Clear
2:53 PM 48.0 °F - 18.0 °F 30% 30.41 in 10.0 mi ESE 4.6 mph - N/A   Clear
3:53 PM 48.0 °F - 17.1 °F 29% 30.40 in 10.0 mi ESE 5.8 mph - N/A   Clear
4:53 PM 45.0 °F 42.6 °F 17.1 °F 33% 30.40 in 10.0 mi ESE 4.6 mph - N/A   Clear
5:53 PM 39.0 °F - 21.9 °F 50% 30.40 in 10.0 mi Calm Calm - N/A   Clear
6:53 PM 34.0 °F - 23.0 °F 64% 30.41 in 10.0 mi Calm Calm - N/A   Clear
7:53 PM 30.9 °F 27.5 °F 21.9 °F 69% 30.41 in 10.0 mi SSE 3.5 mph - N/A   Clear
8:53 PM 30.9 °F - 21.0 °F 67% 30.41 in 10.0 mi Calm Calm - N/A   Scattered Clouds
9:53 PM 30.0 °F 26.5 °F 21.9 °F 72% 30.41 in 10.0 mi SSE 3.5 mph - N/A   Clear
10:53 PM 30.0 °F 25.2 °F 19.9 °F 66% 30.40 in 10.0 mi SSE 4.6 mph - N/A   Clear
11:53 PM 28.0 °F - 21.0 °F 75% 30.40 in 10.0 mi Calm Calm - N/A   Clear